Temperature
8 7 7 7 7 7 7 7 7 6 6 7 7 7 7 7 7 7 7 7 7 7 7 7 7 7 7 7 6 6 7 7 7 7 7 7 7 7
7 7 7 7 7 6 6 6 6 5 5 6 6 6 6 6 6 6 7 7 7 7 6 6 6 6 6 6 6 6 6 6 6 6 6 6 6 6
6 6 6 6 6 6 6 5 5 5 5 5 5 5 6 6 6 6 6 6 6 6 6 6 6 6 5 5 5 5 5 5 5 5 5 5 6 6
6 6 6 6 5 5 5 5 5 4 4 4 4 5 5 5 5 5 5 5 5 6 5 5 5 5 5 5 4 4 5 5 5 5 5 5 5 5
5 5 5 5 5 5 5 4 4 4 3 3 3 4 4 4 4 4 4 4 4 5 4 4 4 4 4 4 4 4 4 4 4 4 4 4 4 5
4 4 4 4 4 4 4 3 3 3 3 3 3 3 3 3 3 3 3 4 4 4 3 3 3 3 3 3 3 3 3 3 3 3 3 3 4 4
4 4 4 3 3 3 3 3 2 2 2 2 2 2 2 2 2 2 2 2 3 3 3 3 3 3 3 3 2 3 2 2 3 3 3 3 3 3
3 3 3 3 3 3 2 2 2 1 1 1 1 1 1 1 1 1 1 1 1 1 1 2 2 2 2 2 2 2 2 2 2 2 2 2 3 3
3 3 2 2 2 2 2 2 1 1 1 0 0 0 0 -0 -0 -0 -0 -0 -0 0 0 1 1 1 1 1 1 1 1 1 1 1 2 2 2 2
2 2 2 2 2 2 1 1 1 1 0 0 -0 -0 -0 -1 -1 -1 -1 -1 -0 -0 -1 -1 0 0 1 1 1 1 1 1 1 1 1 1 1 2
1 1 1 1 1 1 1 0 0 0 -0 -0 -1 -1 -1 -1 -1 -1 -1 -1 -1 -1 -1 -2 -1 -1 -0 0 0 0 0 -0 0 0 0 1 1 1
1 1 1 0 0 0 -0 -0 -0 -1 -1 -1 -1 -1 -1 -1 -1 -2 -2 -2 -2 -2 -2 -2 -2 -2 -2 -1 -0 -0 -0 -0 -0 -0 -0 0 0 1
0 0 0 -0 -1 -1 -1 -1 -1 -2 -2 -2 -1 -1 -2 -2 -2 -2 -2 -3 -3 -3 -3 -3 -3 -3 -4 -3 -2 -1 -1 -1 -1 -1 -1 -0 -0 -0
-0 -1 -1 -1 -1 -1 -1 -2 -2 -2 -2 -2 -2 -2 -2 -2 -2 -3 -3 -3 -3 -3 -4 -4 -4 -4 -4 -4 -4 -2 -2 -2 -2 -1 -1 -1 -1 -0
-1 -1 -1 -1 -2 -2 -2 -2 -2 -3 -3 -3 -3 -3 -3 -3 -3 -3 -3 -3 -3 -4 -4 -4 -4 -4 -4 -4 -4 -3 -3 -2 -2 -2 -2 -2 -1 -1
-1 -2 -2 -2 -2 -2 -3 -3 -3 -3 -3 -4 -4 -4 -4 -4 -4 -4 -4 -4 -4 -4 -4 -4 -4 -4 -4 -4 -4 -4 -4 -4 -3 -3 -2 -2 -2 -1
-2 -2 -2 -2 -2 -3 -3 -3 -3 -4 -4 -4 -4 -4 -4 -4 -4 -4 -5 -5 -5 -5 -4 -4 -4 -4 -4 -4 -4 -4 -4 -4 -4 -4 -3 -2 -2 -2
-3 -3 -3 -3 -3 -3 -3 -4 -4 -4 -4 -5 -5 -5 -5 -5 -5 -5 -5 -5 -5 -5 -5 -5 -5 -5 -4 -4 -4 -4 -4 -4 -4 -4 -4 -3 -2 -2
-3 -3 -3 -4 -4 -4 -4 -4 -5 -5 -5 -5 -5 -5 -5 -5 -5 -5 -5 -6 -6 -6 -6 -6 -6 -6 -6 -5 -5 -5 -5 -5 -4 -4 -4 -4 -3 -3
-3 -4 -4 -4 -5 -5 -5 -5 -5 -5 -5 -6 -6 -6 -6 -6 -6 -6 -6 -6 -6 -6 -6 -6 -6 -6 -6 -6 -6 -5 -5 -5 -5 -4 -4 -4 -3 -3
-4 -4 -4 -5 -5 -5 -5 -6 -6 -6 -6 -6 -6 -6 -6 -6 -6 -7 -7 -6 -6 -6 -6 -6 -6 -6 -6 -6 -6 -5 -5 -5 -5 -5 -5 -4 -4 -4
-4 -5 -5 -5 -5 -6 -6 -6 -6 -6 -6 -6 -6 -7 -7 -7 -7 -7 -7 -7 -7 -7 -7 -6 -6 -6 -6 -6 -6 -6 -5 -5 -5 -5 -5 -5 -5 -4
-5 -5 -5 -6 -6 -6 -6 -6 -6 -6 -7 -7 -7 -7 -7 -7 -7 -7 -7 -7 -7 -7 -7 -7 -6 -6 -6 -6 -6 -6 -6 -5 -5 -5 -5 -5 -5 -4
Wind_Speed
2 2 2 1 1 1 1 2 3 4 5 3 2 1 3 4 6 6 7 9 11 12 13 14 15 16 16 16 17 17 17 17 16 16 17 17 19 19
1 1 1 1 1 1 1 2 2 4 5 2 2 3 4 5 7 7 8 10 10 12 13 13 14 15 16 16 15 15 15 16 16 17 17 18 19 19
1 1 1 1 1 1 1 2 2 3 6 4 2 3 4 4 6 7 8 8 9 12 13 14 14 14 14 13 13 13 14 15 16 16 17 17 18 18
0 1 0 0 1 1 2 2 3 3 4 6 4 3 4 5 5 5 6 7 8 11 13 13 13 13 13 13 13 13 13 14 15 15 15 15 16 16
0 1 1 0 1 2 2 2 2 3 3 4 5 4 3 3 5 5 6 5 7 10 11 12 12 12 13 12 13 13 13 14 15 15 14 15 15 15
1 1 1 2 2 3 2 3 3 3 3 4 5 4 4 3 3 5 6 5 6 7 8 10 11 12 12 12 12 12 13 14 14 14 14 14 14 14
1 1 1 2 3 3 3 3 2 3 3 4 5 4 4 4 4 4 6 6 6 4 4 5 6 6 7 10 11 11 12 13 13 13 13 13 13 14
1 2 2 2 3 4 5 4 4 4 4 4 5 6 6 5 5 5 6 6 5 2 4 7 5 6 6 6 10 12 12 13 13 12 12 13 13 14
1 2 2 2 3 3 4 5 5 6 6 5 6 6 6 5 5 6 6 6 7 5 5 7 5 6 6 8 12 12 12 12 12 12 12 13 13 13
2 2 2 3 3 3 3 3 3 4 5 4 4 5 5 5 5 6 7 7 6 4 3 6 5 6 7 6 11 11 11 11 12 12 12 12 12 12
2 2 2 3 5 5 3 3 4 4 5 6 6 6 7 7 6 4 4 5 6 5 2 3 4 5 6 5 7 10 11 12 13 13 13 13 12 11
2 3 4 5 5 6 3 3 4 5 5 5 5 6 5 6 6 4 4 5 5 4 2 2 4 4 4 3 4 5 7 10 12 13 13 12 12 8
2 3 3 6 6 6 5 3 4 5 4 4 4 4 4 3 4 3 4 4 5 5 3 3 4 4 4 5 5 5 4 5 6 8 10 11 10 8
1 2 3 6 7 6 5 5 6 5 3 3 3 4 4 4 4 4 5 5 6 7 7 5 5 5 6 7 6 5 5 5 5 6 6 9 9 10
1 3 5 6 6 5 5 6 5 3 3 3 4 4 4 5 5 4 5 5 5 6 7 6 6 6 6 6 6 6 6 6 4 4 5 5 5 4
1 3 5 5 5 5 5 4 3 3 3 3 4 4 4 4 4 4 5 5 5 5 4 5 6 6 6 7 7 7 6 5 5 6 6 6 4 4
1 1 2 3 3 3 3 3 3 3 3 3 4 5 5 5 5 5 4 4 4 5 6 5 5 5 6 6 6 6 6 6 6 6 6 6 5 4
1 1 1 2 2 3 3 4 3 3 4 4 4 4 5 5 5 5 4 4 5 6 6 5 6 5 4 4 6 6 5 5 5 6 5 5 5 4
1 1 2 2 2 3 3 3 4 4 4 4 4 5 5 5 5 5 5 5 5 5 5 5 4 4 5 6 4 4 4 5 5 5 5 4 5 5
1 2 2 2 2 2 3 3 3 4 4 4 4 4 5 5 5 5 5 5 6 6 6 5 4 4 4 5 5 5 5 5 4 5 5 4 3 4
2 2 2 2 2 2 2 3 3 4 4 4 4 4 4 4 5 5 6 8 6 5 6 6 6 8 5 3 4 4 4 4 4 4 4 3 2 2
2 2 3 3 3 2 2 3 3 4 4 4 4 4 4 4 5 6 6 6 5 5 6 6 6 5 3 3 4 5 5 5 5 5 4 3 1 1
3 3 3 3 3 2 2 3 4 4 4 4 4 4 4 5 5 5 5 5 5 6 6 6 5 3 3 3 3 4 5 5 3 3 3 5 5 3
Wind_Direction
200 204 219 232 233 249 250 227 232 259 262 243 246 284 314 302 296 294 290 289 288 287 286 287 288 289 288 285 283 280 278 273 271 270 271 270 268 268
202 176 220 245 238 239 243 250 237 242 259 258 245 283 297 304 299 295 288 292 289 288 288 289 290 291 288 284 283 284 282 279 274 269 269 270 269 266
79 128 225 245 239 266 259 252 249 242 259 276 260 276 282 289 302 301 294 290 291 289 290 290 290 289 289 289 289 287 286 285 280 274 271 271 271 267
83 115 313 338 283 269 256 253 252 251 250 272 276 273 272 283 287 289 299 299 294 291 290 288 289 288 288 289 289 290 290 289 285 279 276 274 273 270
200 201 249 235 266 271 270 266 263 267 249 264 278 273 273 289 295 296 293 289 298 297 293 287 287 290 290 290 290 291 291 290 288 282 276 274 273 273
299 263 247 238 247 257 266 262 264 265 266 269 277 284 283 293 294 295 300 296 298 300 296 294 293 292 290 290 289 289 289 288 289 287 282 275 272 272
336 330 315 305 298 286 283 276 273 265 268 276 281 289 289 302 298 299 298 303 295 280 289 293 292 286 289 290 288 287 287 288 290 287 285 282 279 274
325 325 318 317 322 319 309 304 292 279 277 273 279 285 287 287 291 295 298 303 296 289 302 297 290 285 283 283 292 296 296 295 295 291 290 289 284 278
301 310 326 332 338 308 311 322 316 309 291 271 274 279 286 290 290 290 289 290 286 292 295 286 286 282 284 291 297 296 296 296 297 295 293 294 291 284
333 312 302 306 309 315 316 319 313 310 302 291 275 282 288 288 280 281 284 287 283 278 267 278 286 284 292 288 289 294 297 298 300 299 296 295 292 288
348 340 326 307 323 332 327 313 314 316 329 327 318 313 313 312 308 302 301 301 297 293 273 271 287 297 288 279 287 295 299 302 303 300 299 297 293 289
347 344 342 339 337 335 326 314 310 314 323 326 324 323 321 322 327 309 291 289 295 294 289 293 292 312 301 277 281 295 301 302 303 301 301 299 297 290
334 335 333 341 341 341 341 330 317 329 331 321 315 315 317 317 315 308 289 274 277 277 291 301 287 289 282 295 298 291 291 293 299 299 300 299 296 293
312 314 321 338 344 347 347 343 342 347 340 329 324 322 323 318 313 306 294 280 267 267 277 278 275 281 288 292 293 300 300 294 292 293 297 299 296 293
300 319 332 343 349 351 350 351 354 353 341 335 328 322 318 311 311 311 304 296 283 275 275 268 267 276 274 278 284 291 301 299 293 293 296 291 285 284
330 337 349 355 357 353 352 355 353 343 336 324 320 316 317 320 320 318 313 314 307 299 288 282 271 266 272 272 274 282 286 288 302 303 300 291 283 272
347 6 8 357 352 350 351 352 350 349 345 332 324 324 326 326 320 319 314 315 306 305 311 310 299 278 260 264 274 275 282 289 292 299 301 297 292 285
357 347 330 328 322 326 331 335 338 338 336 331 324 319 320 319 318 320 320 314 309 308 308 312 321 324 317 279 243 266 279 282 293 298 297 293 296 297
254 284 293 299 307 312 316 320 323 327 326 322 320 318 317 316 317 319 319 318 314 312 310 310 316 319 317 311 297 258 271 291 300 300 296 285 286 294
246 263 277 285 292 296 301 307 312 319 322 319 316 315 318 319 319 320 318 312 311 315 318 317 313 307 290 286 292 295 287 284 292 298 302 302 295 297
249 259 269 275 279 282 288 293 297 301 307 309 308 310 314 317 317 319 319 317 315 314 317 313 302 307 297 293 297 300 305 300 290 290 307 314 318 339
246 254 264 268 270 269 275 282 288 292 297 298 300 304 306 308 311 315 317 317 315 311 307 307 312 318 317 303 302 307 315 321 324 325 322 316 301 298
242 249 258 262 261 259 260 268 275 281 286 290 294 298 302 305 307 309 311 311 314 317 318 318 322 324 311 300 303 309 315 323 334 353 356 355 2 1
Height
1461 1462 1463 1463 1464 1466 1466 1467 1468 1466 1464 1464 1465 1465 1466 1465 1465 1464 1463 1463 1462 1462 1461 1460 1460 1458 1458 1457 1456 1455 1455 1454 1453 1453 1453 1452 1451 1451
1457 1457 1458 1459 1460 1461 1461 1462 1462 1462 1459 1459 1460 1460 1460 1459 1458 1457 1456 1456 1455 1454 1453 1452 1452 1451 1449 1448 1448 1447 1446 1446 1445 1445 1444 1444 1443 1443
1453 1454 1454 1455 1456 1456 1456 1456 1457 1456 1455 1454 1455 1454 1454 1453 1452 1451 1450 1449 1448 1447 1446 1445 1444 1443 1441 1441 1440 1439 1438 1438 1437 1436 1436 1435 1434 1434
1449 1450 1451 1451 1452 1452 1452 1451 1451 1451 1450 1449 1448 1448 1448 1447 1445 1444 1443 1442 1441 1439 1438 1437 1436 1435 1434 1433 1432 1431 1430 1430 1429 1428 1428 1427 1426 1426
1446 1446 1447 1447 1447 1448 1447 1447 1446 1446 1445 1444 1442 1442 1442 1441 1439 1438 1437 1435 1434 1432 1431 1430 1429 1427 1426 1425 1424 1423 1423 1422 1421 1420 1419 1419 1418 1418
1443 1443 1443 1443 1443 1443 1443 1442 1442 1441 1440 1439 1438 1437 1436 1435 1433 1431 1429 1428 1427 1426 1425 1423 1422 1421 1419 1418 1417 1416 1415 1414 1413 1412 1412 1411 1410 1409
1440 1440 1440 1440 1440 1439 1439 1438 1437 1436 1436 1434 1433 1431 1430 1429 1428 1426 1424 1422 1420 1419 1418 1417 1415 1413 1412 1411 1410 1408 1407 1406 1405 1405 1404 1403 1402 1401
1437 1437 1437 1436 1436 1435 1435 1434 1433 1432 1431 1430 1428 1427 1425 1424 1423 1421 1419 1416 1414 1414 1412 1410 1409 1407 1405 1404 1403 1402 1401 1399 1398 1397 1396 1395 1394 1393
1435 1434 1433 1433 1432 1431 1430 1429 1429 1427 1427 1426 1424 1422 1420 1419 1418 1416 1415 1412 1410 1408 1406 1403 1402 1400 1399 1398 1397 1395 1394 1392 1391 1390 1389 1388 1387 1386
1432 1431 1430 1429 1428 1427 1426 1425 1423 1422 1421 1420 1419 1417 1416 1415 1414 1413 1410 1408 1405 1404 1402 1399 1396 1394 1393 1391 1390 1389 1387 1386 1384 1383 1382 1381 1380 1379
1429 1428 1427 1426 1425 1423 1422 1421 1419 1418 1417 1415 1414 1413 1412 1411 1410 1408 1406 1403 1400 1398 1397 1395 1391 1388 1386 1384 1383 1382 1381 1380 1378 1377 1375 1374 1373 1372
1427 1426 1424 1423 1421 1420 1419 1417 1415 1413 1412 1410 1410 1408 1407 1406 1405 1404 1402 1400 1397 1394 1392 1391 1387 1385 1380 1377 1377 1376 1374 1373 1372 1370 1369 1368 1367 1366
1424 1423 1422 1420 1418 1417 1415 1413 1412 1410 1408 1407 1405 1404 1402 1401 1400 1399 1397 1396 1394 1391 1389 1387 1384 1381 1379 1373 1370 1370 1368 1366 1365 1364 1363 1361 1361 1360
1422 1421 1419 1417 1415 1414 1412 1410 1409 1407 1405 1403 1401 1399 1398 1397 1395 1394 1393 1391 1389 1387 1385 1383 1380 1378 1374 1370 1367 1364 1363 1361 1359 1358 1356 1355 1354 1354
1419 1418 1416 1415 1413 1411 1409 1407 1406 1404 1402 1400 1398 1396 1394 1393 1391 1389 1388 1386 1384 1383 1381 1378 1376 1373 1371 1367 1363 1360 1358 1356 1354 1353 1351 1350 1349 1348
1417 1415 1414 1412 1410 1408 1407 1405 1403 1401 1399 1398 1395 1393 1391 1389 1387 1385 1383 1381 1379 1377 1376 1374 1371 1369 1366 1363 1360 1356 1354 1352 1349 1348 1346 1344 1344 1343
1414 1413 1411 1409 1408 1406 1404 1403 1401 1399 1397 1395 1393 1390 1388 1386 1384 1382 1380 1378 1376 1373 1370 1368 1366 1364 1361 1359 1355 1353 1350 1348 1346 1344 1341 1339 1339 1338
1412 1410 1408 1407 1405 1403 1402 1400 1399 1397 1395 1393 1391 1388 1386 1384 1381 1379 1377 1375 1372 1370 1367 1364 1361 1359 1357 1354 1353 1349 1347 1345 1342 1340 1338 1336 1334 1335
1409 1407 1406 1404 1402 1401 1399 1398 1396 1394 1393 1390 1388 1386 1384 1381 1379 1377 1374 1372 1370 1367 1365 1362 1359 1357 1354 1351 1349 1348 1345 1342 1339 1337 1335 1334 1332 1331
1405 1404 1403 1401 1400 1398 1397 1395 1394 1392 1390 1388 1386 1384 1382 1379 1377 1374 1372 1369 1367 1364 1362 1360 1357 1355 1353 1350 1347 1344 1343 1340 1337 1335 1333 1331 1330 1330
1402 1401 1400 1398 1397 1396 1394 1393 1391 1389 1388 1386 1384 1382 1380 1377 1375 1372 1370 1367 1365 1362 1359 1357 1355 1353 1351 1348 1346 1342 1341 1339 1337 1334 1332 1330 1329 1328
1398 1397 1396 1395 1394 1393 1391 1390 1388 1387 1385 1383 1381 1379 1377 1375 1373 1370 1368 1365 1363 1360 1358 1356 1353 1351 1349 1346 1344 1341 1339 1337 1336 1334 1332 1331 1330 1329
1395 1394 1393 1392 1390 1389 1388 1387 1385 1384 1382 1380 1379 1377 1375 1373 1371 1368 1366 1364 1361 1359 1356 1354 1352 1349 1347 1345 1343 1341 1339 1337 1335 1333 1332 1331 1331 1330